Time,TemperatureF,DewpointF,PressureIn,WindDirection,WindDirectionDegrees,WindSpeedMPH,WindSpeedGustMPH,Humidity,HourlyPrecipIn,Conditions,Clouds,dailyrainin,SoftwareType,DateUTC
2013-05-31 00:00:00,74.7,69.2,29.98,ENE,71,0.0,25.0,83,0.00,,,0.00,Wunderground v.1.15,2013-05-31 04:00:00,
2013-05-31 00:05:00,74.7,69.2,29.98,East,81,0.0,25.0,83,0.00,,,0.00,Wunderground v.1.15,2013-05-31 04:05:00,
2013-05-31 00:10:00,74.7,68.8,29.98,East,91,1.0,1.0,82,0.00,,,0.00,Wunderground v.1.15,2013-05-31 04:10:00,
2013-05-31 00:20:00,74.9,69.0,29.99,East,90,1.0,1.0,82,0.00,,,0.00,Wunderground v.1.15,2013-05-31 04:20:00,
2013-05-31 00:30:00,74.7,68.8,29.99,ENE,72,1.0,1.0,82,0.00,,,0.00,Wunderground v.1.15,2013-05-31 04:30:00,
2013-05-31 00:40:00,74.7,68.8,29.99,ENE,65,3.0,3.0,82,0.00,,,0.00,Wunderground v.1.15,2013-05-31 04:40:00,
2013-05-31 00:50:00,74.4,68.9,29.98,ESE,105,3.0,12.0,83,0.00,,,0.00,Wunderground v.1.15,2013-05-31 04:50:00,
2013-05-31 00:55:00,74.4,68.9,29.98,East,96,2.0,12.0,83,0.00,,,0.00,Wunderground v.1.15,2013-05-31 04:55:00,
2013-05-31 01:00:00,74.4,68.9,29.97,East,83,2.0,11.0,83,0.00,,,0.00,Wunderground v.1.15,2013-05-31 05:00:00,
2013-05-31 01:05:00,74.2,68.7,29.97,ENE,66,3.0,11.0,83,0.00,,,0.00,Wunderground v.1.15,2013-05-31 05:05:00,
2013-05-31 01:15:00,74.2,68.7,29.97,East,89,2.0,8.0,83,0.00,,,0.00,Wunderground v.1.15,2013-05-31 05:15:00,
2013-05-31 01:25:00,74.0,68.5,29.97,East,89,2.0,8.0,83,0.00,,,0.00,Wunderground v.1.15,2013-05-31 05:25:00,
2013-05-31 01:30:00,74.0,68.5,29.97,NE,40,2.0,2.0,83,0.00,,,0.00,Wunderground v.1.15,2013-05-31 05:30:00,
2013-05-31 01:40:00,74.0,68.5,29.97,ESE,102,1.0,1.0,83,0.00,,,0.00,Wunderground v.1.15,2013-05-31 05:40:00,
2013-05-31 01:50:00,74.0,68.5,29.97,East,84,3.0,3.0,83,0.00,,,0.00,Wunderground v.1.15,2013-05-31 05:50:00,
2013-05-31 02:00:00,73.9,68.4,29.96,East,100,2.0,2.0,83,0.00,,,0.00,Wunderground v.1.15,2013-05-31 06:00:00,
2013-05-31 02:10:00,73.9,68.4,29.96,ENE,78,3.0,3.0,83,0.00,,,0.00,Wunderground v.1.15,2013-05-31 06:10:00,
2013-05-31 02:20:00,73.7,68.6,29.95,ENE,70,2.0,2.0,84,0.00,,,0.00,Wunderground v.1.15,2013-05-31 06:20:00,
2013-05-31 02:30:00,73.5,68.4,29.95,East,90,2.0,9.0,84,0.00,,,0.00,Wunderground v.1.15,2013-05-31 06:30:00,
2013-05-31 02:35:00,73.5,68.4,29.95,East,101,2.0,9.0,84,0.00,,,0.00,Wunderground v.1.15,2013-05-31 06:35:00,
2013-05-31 02:45:00,73.3,68.2,29.94,ENE,76,3.0,9.0,84,0.00,,,0.00,Wunderground v.1.15,2013-05-31 06:45:00,
2013-05-31 02:55:00,73.3,68.2,29.94,East,93,2.0,2.0,84,0.00,,,0.00,Wunderground v.1.15,2013-05-31 06:55:00,
2013-05-31 03:05:00,73.3,68.2,29.94,NE,52,2.0,8.0,84,0.00,,,0.00,Wunderground v.1.15,2013-05-31 07:05:00,
2013-05-31 03:15:00,73.3,68.2,29.93,ESE,108,4.0,9.0,84,0.00,,,0.00,Wunderground v.1.15,2013-05-31 07:15:00,
2013-05-31 03:25:00,73.2,68.1,29.93,East,85,2.0,4.0,84,0.00,,,0.00,Wunderground v.1.15,2013-05-31 07:25:00,
2013-05-31 03:35:00,73.2,68.4,29.92,East,91,2.0,9.0,85,0.00,,,0.00,Wunderground v.1.15,2013-05-31 07:35:00,
2013-05-31 03:45:00,73.0,68.6,29.92,East,98,3.0,3.0,86,0.00,,,0.00,Wunderground v.1.15,2013-05-31 07:45:00,
2013-05-31 03:55:00,73.0,68.6,29.92,East,83,3.0,21.0,86,0.00,,,0.00,Wunderground v.1.15,2013-05-31 07:55:00,
2013-05-31 04:00:00,73.0,68.6,29.92,ESE,102,3.0,4.0,86,0.00,,,0.00,Wunderground v.1.15,2013-05-31 08:00:00,
2013-05-31 04:10:00,73.0,68.6,29.92,East,100,3.0,3.0,86,0.00,,,0.00,Wunderground v.1.15,2013-05-31 08:10:00,
2013-05-31 04:20:00,72.8,68.4,29.92,East,100,2.0,17.0,86,0.00,,,0.00,Wunderground v.1.15,2013-05-31 08:20:00,
2013-05-31 04:30:00,72.8,68.4,29.93,ENE,75,3.0,3.0,86,0.00,,,0.00,Wunderground v.1.15,2013-05-31 08:30:00,
2013-05-31 04:40:00,72.8,68.0,29.93,East,97,3.0,3.0,85,0.00,,,0.00,Wunderground v.1.15,2013-05-31 08:40:00,
2013-05-31 04:45:00,72.8,68.0,29.92,ENE,69,2.0,17.0,85,0.00,,,0.00,Wunderground v.1.15,2013-05-31 08:45:00,
2013-05-31 04:55:00,72.8,68.0,29.92,ENE,67,4.0,17.0,85,0.00,,,0.00,Wunderground v.1.15,2013-05-31 08:55:00,
2013-05-31 05:05:00,72.7,67.9,29.92,East,89,2.0,13.0,85,0.00,,,0.00,Wunderground v.1.15,2013-05-31 09:05:00,
2013-05-31 05:15:00,72.7,67.9,29.92,ENE,58,3.0,17.0,85,0.00,,,0.00,Wunderground v.1.15,2013-05-31 09:15:00,
2013-05-31 05:25:00,72.5,67.7,29.92,ENE,67,3.0,7.0,85,0.00,,,0.00,Wunderground v.1.15,2013-05-31 09:25:00,
2013-05-31 05:30:00,72.5,68.1,29.93,East,90,2.0,2.0,86,0.00,,,0.00,Wunderground v.1.15,2013-05-31 09:30:00,
2013-05-31 05:40:00,72.5,68.1,29.93,ENE,67,2.0,2.0,86,0.00,,,0.00,Wunderground v.1.15,2013-05-31 09:40:00,
2013-05-31 05:50:00,72.5,68.1,29.94,ESE,111,3.0,17.0,86,0.00,,,0.00,Wunderground v.1.15,2013-05-31 09:50:00,
2013-05-31 06:00:00,72.5,68.1,29.94,East,84,2.0,2.0,86,0.00,,,0.00,Wunderground v.1.15,2013-05-31 10:00:00,
2013-05-31 06:05:00,72.5,68.1,29.94,East,82,3.0,10.0,86,0.00,,,0.00,Wunderground v.1.15,2013-05-31 10:05:00,
2013-05-31 06:15:00,72.5,67.7,29.94,East,83,5.0,19.0,85,0.00,,,0.00,Wunderground v.1.15,2013-05-31 10:15:00,
2013-05-31 06:25:00,72.7,67.9,29.94,East,101,4.0,5.0,85,0.00,,,0.00,Wunderground v.1.15,2013-05-31 10:25:00,
2013-05-31 06:35:00,72.7,68.3,29.94,ESE,107,4.0,9.0,86,0.00,,,0.00,Wunderground v.1.15,2013-05-31 10:35:00,
2013-05-31 06:45:00,72.7,68.3,29.94,East,95,4.0,13.0,86,0.00,,,0.00,Wunderground v.1.15,2013-05-31 10:45:00,
2013-05-31 06:50:00,72.7,68.3,29.94,ENE,72,7.0,7.0,86,0.00,,,0.00,Wunderground v.1.15,2013-05-31 10:50:00,
2013-05-31 07:00:00,72.7,68.6,29.94,ENE,76,6.0,6.0,87,0.00,,,0.00,Wunderground v.1.15,2013-05-31 11:00:00,
2013-05-31 07:10:00,72.8,68.7,29.94,East,85,5.0,5.0,87,0.00,,,0.00,Wunderground v.1.15,2013-05-31 11:10:00,
2013-05-31 07:20:00,72.8,68.7,29.95,ESE,114,6.0,13.0,87,0.00,,,0.00,Wunderground v.1.15,2013-05-31 11:20:00,
2013-05-31 07:25:00,73.0,68.9,29.95,ENE,77,7.0,13.0,87,0.00,,,0.00,Wunderground v.1.15,2013-05-31 11:25:00,
2013-05-31 07:35:00,73.2,69.1,29.95,East,82,4.0,13.0,87,0.00,,,0.00,Wunderground v.1.15,2013-05-31 11:35:00,
2013-05-31 07:45:00,73.5,69.1,29.95,ENE,69,5.0,5.0,86,0.00,,,0.00,Wunderground v.1.15,2013-05-31 11:45:00,
2013-05-31 07:50:00,74.0,69.5,29.95,East,89,6.0,6.0,86,0.00,,,0.00,Wunderground v.1.15,2013-05-31 11:50:00,
2013-05-31 08:00:00,74.4,69.2,29.96,ESE,115,10.0,17.0,84,0.00,,,0.00,Wunderground v.1.15,2013-05-31 12:00:00,
2013-05-31 08:10:00,74.9,69.7,29.96,ESE,110,7.0,13.0,84,0.00,,,0.00,Wunderground v.1.15,2013-05-31 12:10:00,
2013-05-31 08:20:00,75.3,69.8,29.96,East,91,7.0,7.0,83,0.00,,,0.00,Wunderground v.1.15,2013-05-31 12:20:00,
2013-05-31 08:25:00,75.4,69.9,29.96,East,96,7.0,19.0,83,0.00,,,0.00,Wunderground v.1.15,2013-05-31 12:25:00,
2013-05-31 08:35:00,76.3,70.0,29.96,East,97,9.0,19.0,81,0.00,,,0.00,Wunderground v.1.15,2013-05-31 12:35:00,
2013-05-31 08:45:00,76.5,69.9,29.96,ESE,112,9.0,13.0,80,0.00,,,0.00,Wunderground v.1.15,2013-05-31 12:45:00,
2013-05-31 08:50:00,77.0,70.4,29.96,SE,131,10.0,10.0,80,0.00,,,0.00,Wunderground v.1.15,2013-05-31 12:50:00,
2013-05-31 09:00:00,77.7,70.3,29.96,SE,129,6.0,13.0,78,0.00,,,0.00,Wunderground v.1.15,2013-05-31 13:00:00,
2013-05-31 09:10:00,78.5,70.7,29.96,ESE,108,7.0,7.0,77,0.00,,,0.00,Wunderground v.1.15,2013-05-31 13:10:00,
2013-05-31 09:20:00,78.8,70.6,29.97,East,84,10.0,13.0,76,0.00,,,0.00,Wunderground v.1.15,2013-05-31 13:20:00,
2013-05-31 09:30:00,79.0,70.4,29.97,ESE,108,12.0,12.0,75,0.00,,,0.00,Wunderground v.1.15,2013-05-31 13:30:00,
2013-05-31 09:35:00,78.8,70.2,29.97,ESE,113,11.0,12.0,75,0.00,,,0.00,Wunderground v.1.15,2013-05-31 13:35:00,
2013-05-31 09:45:00,78.6,70.0,29.97,ESE,108,15.0,15.0,75,0.00,,,0.00,Wunderground v.1.15,2013-05-31 13:45:00,
2013-05-31 09:55:00,79.8,70.8,29.97,ENE,71,10.0,13.0,74,0.00,,,0.00,Wunderground v.1.15,2013-05-31 13:55:00,
2013-05-31 10:05:00,81.1,70.8,29.97,SSW,200,10.0,21.0,71,0.00,,,0.00,Wunderground v.1.15,2013-05-31 14:05:00,
2013-05-31 10:15:00,80.7,70.4,29.97,ESE,120,16.0,16.0,71,0.00,,,0.00,Wunderground v.1.15,2013-05-31 14:15:00,
2013-05-31 10:20:00,81.2,70.9,29.97,ESE,110,12.0,24.0,71,0.00,,,0.00,Wunderground v.1.15,2013-05-31 14:20:00,
2013-05-31 10:30:00,80.9,70.6,29.97,ENE,60,12.0,12.0,71,0.00,,,0.00,Wunderground v.1.15,2013-05-31 14:30:00,
2013-05-31 10:40:00,81.2,70.5,29.97,SE,125,12.0,24.0,70,0.00,,,0.00,Wunderground v.1.15,2013-05-31 14:40:00,
2013-05-31 10:50:00,81.8,71.1,29.98,SE,128,9.0,9.0,70,0.00,,,0.00,Wunderground v.1.15,2013-05-31 14:50:00,
2013-05-31 10:55:00,81.6,70.4,29.98,ESE,105,7.0,24.0,69,0.00,,,0.00,Wunderground v.1.15,2013-05-31 14:55:00,
2013-05-31 11:05:00,81.2,70.1,29.98,ESE,111,9.0,11.0,69,0.00,,,0.00,Wunderground v.1.15,2013-05-31 15:05:00,
2013-05-31 11:15:00,80.7,71.2,29.97,ESE,111,10.0,24.0,73,0.00,,,0.00,Wunderground v.1.15,2013-05-31 15:15:00,
2013-05-31 11:25:00,82.0,71.2,29.97,SSE,147,3.0,24.0,70,0.00,,,0.00,Wunderground v.1.15,2013-05-31 15:25:00,
2013-05-31 11:35:00,82.8,70.7,29.98,ESE,116,8.0,24.0,67,0.00,,,0.00,Wunderground v.1.15,2013-05-31 15:35:00,
2013-05-31 11:40:00,82.2,70.6,29.98,SE,129,9.0,24.0,68,0.00,,,0.00,Wunderground v.1.15,2013-05-31 15:40:00,
2013-05-31 11:50:00,82.4,70.8,29.97,ENE,77,11.0,11.0,68,0.00,,,0.00,Wunderground v.1.15,2013-05-31 15:50:00,
2013-05-31 11:55:00,82.2,70.6,29.97,ENE,64,11.0,13.0,68,0.00,,,0.00,Wunderground v.1.15,2013-05-31 15:55:00,
2013-05-31 12:05:00,81.8,71.1,29.97,SE,129,9.0,24.0,70,0.00,,,0.00,Wunderground v.1.15,2013-05-31 16:05:00,
2013-05-31 12:15:00,82.6,71.0,29.97,ESE,122,9.0,9.0,68,0.00,,,0.00,Wunderground v.1.15,2013-05-31 16:15:00,
2013-05-31 12:20:00,82.6,71.0,29.97,East,86,9.0,9.0,68,0.00,,,0.00,Wunderground v.1.15,2013-05-31 16:20:00,
2013-05-31 12:30:00,81.6,72.1,29.97,East,98,6.0,6.0,73,0.00,,,0.00,Wunderground v.1.15,2013-05-31 16:30:00,
2013-05-31 12:35:00,81.2,72.5,29.97,ESE,109,2.0,6.0,75,0.00,,,0.00,Wunderground v.1.15,2013-05-31 16:35:00,
2013-05-31 12:45:00,81.8,71.9,29.97,SE,143,6.0,11.0,72,0.00,,,0.00,Wunderground v.1.15,2013-05-31 16:45:00,
2013-05-31 12:50:00,82.6,71.4,29.97,East,88,5.0,5.0,69,0.00,,,0.00,Wunderground v.1.15,2013-05-31 16:50:00,
2013-05-31 13:00:00,83.4,71.3,29.96,ESE,115,7.0,14.0,67,0.00,,,0.00,Wunderground v.1.15,2013-05-31 17:00:00,
2013-05-31 13:05:00,83.4,71.3,29.96,ESE,107,7.0,23.0,67,0.00,,,0.00,Wunderground v.1.15,2013-05-31 17:05:00,
2013-05-31 13:15:00,84.0,71.4,29.95,East,93,6.0,11.0,66,0.00,,,0.00,Wunderground v.1.15,2013-05-31 17:15:00,
2013-05-31 13:20:00,84.0,71.0,29.95,ESE,108,7.0,23.0,65,0.00,,,0.00,Wunderground v.1.15,2013-05-31 17:20:00,
2013-05-31 13:30:00,85.1,70.6,29.95,ESE,108,8.0,23.0,62,0.00,,,0.00,Wunderground v.1.15,2013-05-31 17:30:00,
2013-05-31 13:35:00,85.7,71.2,29.95,East,85,7.0,23.0,62,0.00,,,0.00,Wunderground v.1.15,2013-05-31 17:35:00,
2013-05-31 13:45:00,86.3,70.8,29.94,East,89,7.0,23.0,60,0.00,,,0.00,Wunderground v.1.15,2013-05-31 17:45:00,
2013-05-31 13:50:00,86.3,70.3,29.94,ENE,70,9.0,9.0,59,0.00,,,0.00,Wunderground v.1.15,2013-05-31 17:50:00,
2013-05-31 14:00:00,86.1,71.1,29.94,East,96,7.0,23.0,61,0.00,,,0.00,Wunderground v.1.15,2013-05-31 18:00:00,
2013-05-31 14:05:00,84.7,71.6,29.94,SE,131,11.0,23.0,65,0.00,,,0.00,Wunderground v.1.15,2013-05-31 18:05:00,
2013-05-31 14:15:00,81.2,70.5,29.95,ESE,109,14.0,23.0,70,0.00,,,0.00,Wunderground v.1.15,2013-05-31 18:15:00,
2013-05-31 14:20:00,80.5,69.8,29.95,SE,132,14.0,23.0,70,0.00,,,0.00,Wunderground v.1.15,2013-05-31 18:20:00,
2013-05-31 14:30:00,80.5,70.2,29.95,ESE,102,12.0,23.0,71,0.00,,,0.00,Wunderground v.1.15,2013-05-31 18:30:00,
2013-05-31 14:35:00,80.3,70.4,29.95,NE,39,10.0,23.0,72,0.00,,,0.00,Wunderground v.1.15,2013-05-31 18:35:00,
2013-05-31 14:45:00,79.9,70.9,29.95,East,89,8.0,23.0,74,0.00,,,0.00,Wunderground v.1.15,2013-05-31 18:45:00,
2013-05-31 14:55:00,79.4,70.8,29.95,ENE,67,7.0,23.0,75,0.00,,,0.00,Wunderground v.1.15,2013-05-31 18:55:00,
2013-05-31 15:00:00,79.2,71.0,29.94,ENE,62,8.0,8.0,76,0.00,,,0.00,Wunderground v.1.15,2013-05-31 19:00:00,
2013-05-31 15:05:00,79.4,71.2,29.94,NE,50,7.0,23.0,76,0.00,,,0.00,Wunderground v.1.15,2013-05-31 19:05:00,
2013-05-31 15:15:00,79.4,71.6,29.94,East,92,7.0,7.0,77,0.00,,,0.00,Wunderground v.1.15,2013-05-31 19:15:00,
2013-05-31 15:25:00,79.4,72.3,29.94,NNE,31,7.0,10.0,79,0.00,,,0.00,Wunderground v.1.15,2013-05-31 19:25:00,
2013-05-31 15:35:00,79.0,72.7,29.94,East,89,9.0,13.0,81,0.00,,,0.00,Wunderground v.1.15,2013-05-31 19:35:00,
2013-05-31 15:40:00,78.8,72.5,29.94,ENE,72,8.0,8.0,81,0.00,,,0.00,Wunderground v.1.15,2013-05-31 19:40:00,
2013-05-31 15:50:00,78.8,73.2,29.94,ENE,70,5.0,9.0,83,0.00,,,0.00,Wunderground v.1.15,2013-05-31 19:50:00,
2013-05-31 15:55:00,78.3,73.1,29.94,NE,47,4.0,11.0,84,0.00,,,0.00,Wunderground v.1.15,2013-05-31 19:55:00,
2013-05-31 16:05:00,77.6,72.7,29.92,NE,46,3.0,20.0,85,0.00,,,0.00,Wunderground v.1.15,2013-05-31 20:05:00,
2013-05-31 16:15:00,76.5,72.0,29.92,NE,41,3.0,20.0,86,0.00,,,0.00,Wunderground v.1.15,2013-05-31 20:15:00,
2013-05-31 16:20:00,76.7,72.9,29.92,NE,55,2.0,2.0,88,0.00,,,0.00,Wunderground v.1.15,2013-05-31 20:20:00,
2013-05-31 16:30:00,77.2,73.4,29.92,NE,55,0.0,20.0,88,0.00,,,0.00,Wunderground v.1.15,2013-05-31 20:30:00,
2013-05-31 16:40:00,77.9,74.4,29.92,ENE,68,0.0,20.0,89,0.00,,,0.00,Wunderground v.1.15,2013-05-31 20:40:00,
2013-05-31 16:45:00,77.6,73.8,29.93,East,96,3.0,20.0,88,0.00,,,0.00,Wunderground v.1.15,2013-05-31 20:45:00,
2013-05-31 16:55:00,77.6,74.4,29.93,East,89,3.0,20.0,90,0.00,,,0.00,Wunderground v.1.15,2013-05-31 20:55:00,
2013-05-31 17:00:00,77.6,74.4,29.92,East,98,2.0,2.0,90,0.00,,,0.00,Wunderground v.1.15,2013-05-31 21:00:00,
2013-05-31 17:10:00,77.7,74.9,29.92,ESE,102,2.0,2.0,91,0.00,,,0.00,Wunderground v.1.15,2013-05-31 21:10:00,
2013-05-31 17:20:00,77.6,74.4,29.92,East,91,1.0,1.0,90,0.00,,,0.00,Wunderground v.1.15,2013-05-31 21:20:00,
2013-05-31 17:25:00,77.7,74.5,29.92,NNE,33,2.0,9.0,90,0.00,,,0.00,Wunderground v.1.15,2013-05-31 21:25:00,
2013-05-31 17:35:00,78.5,75.0,29.92,ESE,105,2.0,20.0,89,0.00,,,0.00,Wunderground v.1.15,2013-05-31 21:35:00,
2013-05-31 17:40:00,78.8,75.3,29.92,ENE,69,2.0,20.0,89,0.00,,,0.00,Wunderground v.1.15,2013-05-31 21:40:00,
2013-05-31 17:50:00,79.0,74.1,29.91,East,89,3.0,20.0,85,0.00,,,0.00,Wunderground v.1.15,2013-05-31 21:50:00,
2013-05-31 18:00:00,79.2,73.2,29.91,East,79,3.0,20.0,82,0.00,,,0.00,Wunderground v.1.15,2013-05-31 22:00:00,
2013-05-31 18:05:00,79.0,72.7,29.91,ESE,110,4.0,20.0,81,0.00,,,0.00,Wunderground v.1.15,2013-05-31 22:05:00,
2013-05-31 18:15:00,78.5,72.9,29.91,East,86,8.0,11.0,83,0.00,,,0.00,Wunderground v.1.15,2013-05-31 22:15:00,
2013-05-31 18:25:00,78.3,73.1,29.91,East,82,5.0,7.0,84,0.00,,,0.00,Wunderground v.1.15,2013-05-31 22:25:00,
2013-05-31 18:30:00,78.1,73.2,29.92,East,79,6.0,6.0,85,0.00,,,0.00,Wunderground v.1.15,2013-05-31 22:30:00,
2013-05-31 18:40:00,77.7,72.8,29.92,East,96,6.0,6.0,85,0.00,,,0.00,Wunderground v.1.15,2013-05-31 22:40:00,
2013-05-31 18:50:00,77.2,72.0,29.92,SE,128,14.0,14.0,84,0.00,,,0.00,Wunderground v.1.15,2013-05-31 22:50:00,
2013-05-31 18:55:00,77.0,71.4,29.92,ESE,121,15.0,18.0,83,0.00,,,0.00,Wunderground v.1.15,2013-05-31 22:55:00,
2013-05-31 19:05:00,77.6,72.4,29.92,East,98,10.0,18.0,84,0.00,,,0.00,Wunderground v.1.15,2013-05-31 23:05:00,
2013-05-31 19:10:00,77.6,72.4,29.92,ENE,77,9.0,18.0,84,0.00,,,0.00,Wunderground v.1.15,2013-05-31 23:10:00,
2013-05-31 19:20:00,77.9,71.2,29.92,ESE,105,12.0,12.0,80,0.00,,,0.00,Wunderground v.1.15,2013-05-31 23:20:00,
2013-05-31 19:30:00,78.5,72.2,29.92,ESE,105,7.0,7.0,81,0.00,,,0.00,Wunderground v.1.15,2013-05-31 23:30:00,
2013-05-31 19:35:00,78.3,72.0,29.92,East,82,5.0,9.0,81,0.00,,,0.00,Wunderground v.1.15,2013-05-31 23:35:00,
2013-05-31 19:45:00,78.1,72.2,29.92,ENE,66,4.0,18.0,82,0.00,,,0.00,Wunderground v.1.15,2013-05-31 23:45:00,
2013-05-31 19:55:00,77.9,72.0,29.92,ESE,105,6.0,18.0,82,0.00,,,0.00,Wunderground v.1.15,2013-05-31 23:55:00,
2013-05-31 20:05:00,77.7,71.8,29.92,ENE,65,6.0,12.0,82,0.00,,,0.00,Wunderground v.1.15,2013-06-01 00:05:00,
2013-05-31 20:15:00,77.7,72.1,29.92,ESE,105,4.0,18.0,83,0.00,,,0.00,Wunderground v.1.15,2013-06-01 00:15:00,
2013-05-31 20:20:00,77.7,72.1,29.92,East,96,4.0,4.0,83,0.00,,,0.00,Wunderground v.1.15,2013-06-01 00:20:00,
2013-05-31 20:30:00,77.7,72.1,29.93,ESE,120,3.0,18.0,83,0.00,,,0.00,Wunderground v.1.15,2013-06-01 00:30:00,
2013-05-31 20:35:00,77.7,72.1,29.93,ESE,105,4.0,18.0,83,0.00,,,0.00,Wunderground v.1.15,2013-06-01 00:35:00,
2013-05-31 20:45:00,77.7,72.1,29.93,ESE,113,5.0,18.0,83,0.00,,,0.00,Wunderground v.1.15,2013-06-01 00:45:00,
2013-05-31 20:55:00,77.7,72.1,29.93,ESE,114,2.0,18.0,83,0.00,,,0.00,Wunderground v.1.15,2013-06-01 00:55:00,
2013-05-31 21:00:00,77.7,72.1,29.94,ESE,113,1.0,1.0,83,0.00,,,0.00,Wunderground v.1.15,2013-06-01 01:00:00,
2013-05-31 21:10:00,77.6,72.0,29.94,SE,129,1.0,1.0,83,0.00,,,0.00,Wunderground v.1.15,2013-06-01 01:10:00,
2013-05-31 21:20:00,77.7,72.1,29.94,NE,52,3.0,6.0,83,0.00,,,0.00,Wunderground v.1.15,2013-06-01 01:20:00,
2013-05-31 21:25:00,77.7,72.1,29.94,East,95,2.0,6.0,83,0.00,,,0.00,Wunderground v.1.15,2013-06-01 01:25:00,
2013-05-31 21:35:00,77.7,72.1,29.95,SE,126,0.0,0.0,83,0.00,,,0.00,Wunderground v.1.15,2013-06-01 01:35:00,
2013-05-31 21:40:00,77.7,72.1,29.95,ENE,74,1.0,1.0,83,0.00,,,0.00,Wunderground v.1.15,2013-06-01 01:40:00,
2013-05-31 21:50:00,77.6,72.0,29.95,East,91,2.0,2.0,83,0.00,,,0.00,Wunderground v.1.15,2013-06-01 01:50:00,
2013-05-31 22:00:00,77.6,71.7,29.95,East,82,2.0,5.0,82,0.00,,,0.00,Wunderground v.1.15,2013-06-01 02:00:00,
2013-05-31 22:10:00,77.6,71.3,29.95,SE,126,4.0,11.0,81,0.00,,,0.00,Wunderground v.1.15,2013-06-01 02:10:00,
2013-05-31 22:15:00,77.6,71.3,29.96,ESE,102,2.0,11.0,81,0.00,,,0.00,Wunderground v.1.15,2013-06-01 02:15:00,
2013-05-31 22:25:00,77.4,71.1,29.96,SE,144,4.0,4.0,81,0.00,,,0.00,Wunderground v.1.15,2013-06-01 02:25:00,
2013-05-31 22:30:00,77.4,71.1,29.96,East,80,3.0,14.0,81,0.00,,,0.00,Wunderground v.1.15,2013-06-01 02:30:00,
2013-05-31 22:40:00,77.4,71.5,29.96,ESE,104,2.0,11.0,82,0.00,,,0.00,Wunderground v.1.15,2013-06-01 02:40:00,
2013-05-31 22:50:00,77.2,71.3,29.96,East,98,1.0,1.0,82,0.00,,,0.00,Wunderground v.1.15,2013-06-01 02:50:00,
2013-05-31 23:00:00,76.8,71.2,29.96,East,84,2.0,2.0,83,0.00,,,0.00,Wunderground v.1.15,2013-06-01 03:00:00,
2013-05-31 23:05:00,76.8,71.2,29.96,ENE,71,3.0,3.0,83,0.00,,,0.00,Wunderground v.1.15,2013-06-01 03:05:00,
2013-05-31 23:10:00,76.7,71.1,29.96,ESE,109,3.0,3.0,83,0.00,,,0.00,Wunderground v.1.15,2013-06-01 03:10:00,
2013-05-31 23:20:00,76.5,70.9,29.96,East,88,2.0,2.0,83,0.00,,,0.00,Wunderground v.1.15,2013-06-01 03:20:00,
2013-05-31 23:30:00,76.3,70.8,29.96,East,84,1.0,1.0,83,0.00,,,0.00,Wunderground v.1.15,2013-06-01 03:30:00,
2013-05-31 23:40:00,76.1,70.6,29.96,NE,53,2.0,11.0,83,0.00,,,0.00,Wunderground v.1.15,2013-06-01 03:40:00,
2013-05-31 23:45:00,76.1,70.6,29.95,ENE,74,2.0,11.0,83,0.00,,,0.00,Wunderground v.1.15,2013-06-01 03:45:00,
2013-05-31 23:55:00,76.0,70.5,29.95,East,95,0.0,11.0,83,0.00,,,0.00,Wunderground v.1.15,2013-06-01 03:55:00,